Location: Newark
(51.3318°N, 0.0053°E)
Time: 00:29:00
(UTC+00:00)

Envisat - Pass Details

Date: 21 January 2022
Orbit: 764 x 765 km, 98.2° (Epoch: 22 May)

Event Time Altitude Azimuth Distance (km) Brightness Sun altitude
Rises 17:01:48 0° 202° (SSW) 3,219 7.0 -5.1°
Reaches altitude 10° 17:04:32 10° 216° (SW) 2,298 6.6 -5.5°
Maximum altitude 17:08:33 23° 269° (W) 1,571 5.6 -6.0°
Drops below altitude 10° 17:12:36 10° 322° (NW) 2,312 5.7 -6.6°
Sets 17:15:23 0° 336° (NNW) 3,243 6.3 -7.0°
